User: anonymous   Login
Location: Eckley
(40.9930°N, 75.8630°W)
Time: 17:15:54
(UTC-05:00)
Language:

Cosmos 2221 Rocket - Orbit

View from above orbital plane
View from above orbital plane
View from above satellite
View from above satellite

Ground track
Ground track

The orbit data is extracted from the following two-line orbital elements,

1 22237U 92080B   16344.95828551 +.00000108 +00000-0 +11593-4 0  9998
2 22237 082.5121 293.7371 0021266 103.2602 320.2643 14.78294982295392
Epoch (UTC): 09 December 2016 22:59:55
Eccentricity: 0.0021266
inclination: 82.5121°
perigee height: 620 km
apogee height: 649 km
right ascension of ascending node: 293.7371°
argument of perigee: 103.2602°
revolutions per day: 14.78294982
mean anomaly at epoch: 320.2643°
orbit number at epoch: 29539

The dashed part of the orbit path shows where the satellite is in the earth's shadow,  

DLR